CST,Max TemperatureF,Mean TemperatureF,Min TemperatureF,Max Dew PointF,MeanDew PointF,Min DewpointF,Max Humidity, Mean Humidity, Min Humidity, Max Sea Level PressureIn, Mean Sea Level PressureIn, Min Sea Level PressureIn, Max VisibilityMiles, Mean VisibilityMiles, Min VisibilityMiles, Max Wind SpeedMPH, Mean Wind SpeedMPH, Max Gust SpeedMPH,PrecipitationIn, CloudCover, Events, WindDirDegrees
2013-12-1,55,40,25,38,30,25,100,83,45,30.14,30.07,29.91,10,5,0,6,1,,0.00,0,Fog,57
2013-12-2,55,46,36,42,36,31,100,84,62,29.90,29.75,29.68,9,5,0,8,5,,0.00,2,Fog,86
2013-12-3,59,48,37,50,44,36,100,93,69,29.70,29.67,29.62,10,4,0,14,7,,0.00,5,Fog,121
2013-12-4,68,54,37,54,48,30,100,90,54,29.88,29.65,29.50,10,4,0,24,10,31,0.00,7,Fog,133
2013-12-5,35,28,21,28,17,11,85,68,55,30.32,30.20,29.91,10,8,2,18,13,22,0.00,7,Snow,324
2013-12-6,23,20,15,12,7,2,68,58,48,30.63,30.45,30.32,10,10,10,15,11,20,0.00,7,,353
2013-12-7,24,17,10,8,5,3,73,58,42,30.75,30.64,30.48,10,10,10,13,10,,0.00,0,,27
2013-12-8,27,23,19,24,20,8,96,85,55,30.46,30.17,30.02,10,5,2,14,9,,0.00,8,Snow,121
2013-12-9,27,23,19,23,15,10,85,71,60,30.35,30.25,30.10,10,10,10,17,12,25,0.00,6,,283
2013-12-10,36,24,12,16,11,7,96,64,37,30.34,30.30,30.26,10,10,10,21,9,,0.00,0,,265
2013-12-11,32,21,10,19,9,-3,92,63,38,30.69,30.50,30.31,10,10,9,21,6,25,0.00,0,,345
2013-12-12,39,22,5,12,6,-3,80,57,29,30.66,30.48,30.29,10,10,10,13,6,,0.00,0,,157
2013-12-13,35,25,15,32,26,10,100,89,57,30.26,30.07,29.96,10,5,1,10,6,,0.22,6,Rain-Snow,115
2013-12-14,34,30,26,32,30,22,100,95,84,30.17,29.96,29.86,10,4,0,18,9,,0.00,8,Fog-Snow,350
2013-12-15,30,24,19,26,20,15,96,83,69,30.21,30.14,30.06,8,6,0,16,11,22,0.00,4,Fog,307
2013-12-16,28,22,17,26,22,14,100,91,85,30.16,30.07,30.01,6,3,0,12,5,,0.00,6,Fog,9
2013-12-17,37,28,19,28,23,15,100,81,61,30.30,30.20,30.15,10,6,1,13,7,,0.00,3,,263
2013-12-18,44,27,10,30,18,8,96,80,55,30.29,30.14,29.94,10,8,0,13,4,,0.00,0,Fog,122
2013-12-19,46,37,28,42,36,27,96,88,76,29.94,29.87,29.78,10,9,5,10,7,,0.00,4,,127
2013-12-20,64,50,34,58,42,33,100,93,78,29.89,29.78,29.69,10,6,0,16,7,,0.04,7,Fog-Rain,212
2013-12-21,34,33,32,33,31,30,100,93,87,29.85,29.76,29.61,10,6,2,14,6,,0.70,8,Rain,360
2013-12-22,34,31,26,32,29,19,100,89,75,30.30,29.93,29.65,10,8,2,18,10,,0.00,8,Snow,278
2013-12-23,24,17,10,17,12,1,81,74,64,30.62,30.51,30.33,10,10,6,20,13,21,0.00,7,Snow,298
2013-12-24,24,14,6,11,2,-3,70,57,38,30.66,30.54,30.38,10,10,10,16,9,,0.00,1,,194
2013-12-25,35,30,24,29,23,12,82,73,60,30.38,30.31,30.25,10,9,8,13,7,,0.00,8,,230
2013-12-26,48,34,19,28,23,17,96,77,39,30.39,30.32,30.25,10,7,1,13,4,,0.00,0,,217
2013-12-27,52,38,23,31,26,19,92,75,40,30.40,30.31,30.24,10,10,10,8,3,,0.00,0,,154
2013-12-28,57,40,24,33,28,22,96,73,34,30.25,30.10,29.91,10,10,10,13,4,20,0.00,0,,132
2013-12-29,36,26,15,30,20,4,92,77,59,30.31,30.10,29.87,10,10,10,20,9,29,0.00,5,,322
2013-12-30,26,16,7,15,4,-2,73,55,40,30.39,30.31,30.24,10,10,10,9,5,,0.00,3,,8
2013-12-31,41,32,23,23,18,12,78,61,45,30.42,30.27,30.17,10,10,10,13,6,,0.00,0,,189